owner,sensor,date,latitude,longitude,vertical_datum,wind_speed,wind_to_direction,wind_speed_of_gust,qcFlag 
TCOON,ioos:station:TCOON:031:1,2015-12-01T00:00:00Z,28.4073,-96.7122,0.0,3.7,338.0,5.5,'11111222,11111222,11111222' 
TCOON,ioos:station:TCOON:031:1,2015-12-01T00:06:00Z,28.4073,-96.7122,0.0,3.3,340.0,4.7,'11111222,11111222,11111222' 
TCOON,ioos:station:TCOON:031:1,2015-12-01T00:12:00Z,28.4073,-96.7122,0.0,3.2,345.0,5.9,'11111222,11111222,11111222' 
TCOON,ioos:station:TCOON:031:1,2015-12-01T00:18:00Z,28.4073,-96.7122,0.0,3.1,346.0,5.0,'11111222,11111222,11111222' 
TCOON,ioos:station:TCOON:031:1,2015-12-01T00:24:00Z,28.4073,-96.7122,0.0,3.4,351.0,5.3,'11111222,11111222,11111222' 
TCOON,ioos:station:TCOON:031:1,2015-12-01T00:30:00Z,28.4073,-96.7122,0.0,3.4,351.0,5.3,'1111122,1111122,1111122' 
TCOON,ioos:station:TCOON:031:1,2015-12-01T00:36:00Z,28.4073,-96.7122,0.0,3.2,347.0,5.3,'11111222,11111222,11111222' 
TCOON,ioos:station:TCOON:031:1,2015-12-01T00:42:00Z,28.4073,-96.7122,0.0,3.5,335.0,6.1,'11111222,11111222,11111222' 
TCOON,ioos:station:TCOON:031:1,2015-12-01T00:48:00Z,28.4073,-96.7122,0.0,4.5,343.0,6.0,'11111222,11111222,11111222' 
TCOON,ioos:station:TCOON:031:1,2015-12-01T00:54:00Z,28.4073,-96.7122,0.0,3.3,347.0,5.2,'11111222,11111222,11111222' 
TCOON,ioos:station:TCOON:031:1,2015-12-01T01:00:00Z,28.4073,-96.7122,0.0,3.1,5.0,5.5,'11111222,11111222,11111222' 
TCOON,ioos:station:TCOON:031:1,2015-12-01T01:06:00Z,28.4073,-96.7122,0.0,4.2,355.0,5.6,'11111222,11111222,11111222' 
TCOON,ioos:station:TCOON:031:1,2015-12-01T01:12:00Z,28.4073,-96.7122,0.0,3.1,358.0,4.8,'11111222,11111222,11111222' 
TCOON,ioos:station:TCOON:031:1,2015-12-01T01:18:00Z,28.4073,-96.7122,0.0,3.2,352.0,4.9,'11111222,11111222,11111222' 
TCOON,ioos:station:TCOON:031:1,2015-12-01T01:24:00Z,28.4073,-96.7122,0.0,3.1,5.0,4.6,'11111222,11111222,11111222' 
TCOON,ioos:station:TCOON:031:1,2015-12-01T01:30:00Z,28.4073,-96.7122,0.0,3.1,5.0,4.6,'1111122,1111122,1111122' 
TCOON,ioos:station:TCOON:031:1,2015-12-01T01:36:00Z,28.4073,-96.7122,0.0,3.4,13.0,5.4,'11111222,11111222,11111222' 
TCOON,ioos:station:TCOON:031:1,2015-12-01T01:42:00Z,28.4073,-96.7122,0.0,2.3,11.0,4.3,'11111222,11111222,11111222' 
TCOON,ioos:station:TCOON:031:1,2015-12-01T01:48:00Z,28.4073,-96.7122,0.0,1.8,33.0,3.8,'11111222,11111222,11111222' 
TCOON,ioos:station:TCOON:031:1,2015-12-01T01:54:00Z,28.4073,-96.7122,0.0,2.2,24.0,3.4,'11111222,11111222,11111222' 
TCOON,ioos:station:TCOON:031:1,2015-12-01T02:00:00Z,28.4073,-96.7122,0.0,1.8,36.0,3.5,'11111222,11111222,11111222' 
TCOON,ioos:station:TCOON:031:1,2015-12-01T02:06:00Z,28.4073,-96.7122,0.0,2.0,11.0,3.4,'11111222,11111222,11111222' 
TCOON,ioos:station:TCOON:031:1,2015-12-01T02:12:00Z,28.4073,-96.7122,0.0,2.7,6.0,3.7,'11111222,11111222,11111222' 
TCOON,ioos:station:TCOON:031:1,2015-12-01T02:18:00Z,28.4073,-96.7122,0.0,2.5,17.0,3.6,'11111222,11111222,11111222' 
TCOON,ioos:station:TCOON:031:1,2015-12-01T02:24:00Z,28.4073,-96.7122,0.0,2.6,9.0,4.0,'11111222,11111222,11111222' 
TCOON,ioos:station:TCOON:031:1,2015-12-01T02:30:00Z,28.4073,-96.7122,0.0,2.6,9.0,4.0,'1111122,1111122,1111122' 
TCOON,ioos:station:TCOON:031:1,2015-12-01T02:36:00Z,28.4073,-96.7122,0.0,99.0,-9999.0,99.0,'11144222,99999999,11144222' 
TCOON,ioos:station:TCOON:031:1,2015-12-01T02:42:00Z,28.4073,-96.7122,0.0,99.0,-9999.0,99.0,'11144222,99999999,11144222' 
TCOON,ioos:station:TCOON:031:1,2015-12-01T02:48:00Z,28.4073,-96.7122,0.0,99.0,-9999.0,99.0,'11144222,99999999,11144222' 
TCOON,ioos:station:TCOON:031:1,2015-12-01T02:54:00Z,28.4073,-96.7122,0.0,2.2,360.0,3.4,'11111222,11144222,11111222' 
TCOON,ioos:station:TCOON:031:1,2015-12-01T03:00:00Z,28.4073,-96.7122,0.0,3.4,360.0,4.6,'11111222,11144222,11111222' 
TCOON,ioos:station:TCOON:031:1,2015-12-01T03:06:00Z,28.4073,-96.7122,0.0,2.1,337.0,4.5,'11111222,11111222,11111222' 
TCOON,ioos:station:TCOON:031:1,2015-12-01T03:12:00Z,28.4073,-96.7122,0.0,2.3,333.0,3.7,'11111222,11111222,11111222' 
TCOON,ioos:station:TCOON:031:1,2015-12-01T03:18:00Z,28.4073,-96.7122,0.0,2.3,333.0,3.7,'1111122,1111122,1111122' 
TCOON,ioos:station:TCOON:031:1,2015-12-01T03:24:00Z,28.4073,-96.7122,0.0,2.8,338.0,4.2,'11111222,11111222,11111222' 
TCOON,ioos:station:TCOON:031:1,2015-12-01T03:30:00Z,28.4073,-96.7122,0.0,3.0,359.0,4.3,'11111222,11111222,11111222' 
TCOON,ioos:station:TCOON:031:1,2015-12-01T03:36:00Z,28.4073,-96.7122,0.0,2.3,348.0,4.0,'11111222,11111222,11111222' 
TCOON,ioos:station:TCOON:031:1,2015-12-01T03:42:00Z,28.4073,-96.7122,0.0,4.0,7.0,5.3,'11111222,11111222,11111222' 
TCOON,ioos:station:TCOON:031:1,2015-12-01T03:48:00Z,28.4073,-96.7122,0.0,3.3,1.0,5.0,'11111222,11111222,11111222' 
TCOON,ioos:station:TCOON:031:1,2015-12-01T03:54:00Z,28.4073,-96.7122,0.0,3.2,339.0,4.1,'11111222,11111222,11111222' 
TCOON,ioos:station:TCOON:031:1,2015-12-01T04:00:00Z,28.4073,-96.7122,0.0,2.1,349.0,3.9,'11111222,11111222,11111222' 
TCOON,ioos:station:TCOON:031:1,2015-12-01T04:06:00Z,28.4073,-96.7122,0.0,2.2,357.0,3.0,'11111222,11111222,11111222' 
TCOON,ioos:station:TCOON:031:1,2015-12-01T04:12:00Z,28.4073,-96.7122,0.0,2.7,349.0,3.6,'11111222,11111222,11111222' 
TCOON,ioos:station:TCOON:031:1,2015-12-01T04:18:00Z,28.4073,-96.7122,0.0,2.6,330.0,3.9,'11111222,11111222,11111222' 
TCOON,ioos:station:TCOON:031:1,2015-12-01T04:24:00Z,28.4073,-96.7122,0.0,2.3,333.0,3.3,'11111222,11111222,11111222' 
TCOON,ioos:station:TCOON:031:1,2015-12-01T04:30:00Z,28.4073,-96.7122,0.0,2.3,333.0,3.3,'1111122,1111122,1111122' 
TCOON,ioos:station:TCOON:031:1,2015-12-01T04:36:00Z,28.4073,-96.7122,0.0,2.4,359.0,3.9,'11111222,11111222,11111222' 
TCOON,ioos:station:TCOON:031:1,2015-12-01T04:42:00Z,28.4073,-96.7122,0.0,3.2,348.0,4.6,'11111222,11111222,11111222' 
TCOON,ioos:station:TCOON:031:1,2015-12-01T04:48:00Z,28.4073,-96.7122,0.0,2.9,346.0,5.7,'11111222,11111222,11111222' 
TCOON,ioos:station:TCOON:031:1,2015-12-01T04:54:00Z,28.4073,-96.7122,0.0,2.8,340.0,4.6,'11111222,11111222,11111222' 
TCOON,ioos:station:TCOON:031:1,2015-12-01T05:00:00Z,28.4073,-96.7122,0.0,2.3,341.0,4.3,'11111222,11111222,11111222' 
TCOON,ioos:station:TCOON:031:1,2015-12-01T05:06:00Z,28.4073,-96.7122,0.0,2.8,338.0,4.3,'11111222,11111222,11111222' 
TCOON,ioos:station:TCOON:031:1,2015-12-01T05:12:00Z,28.4073,-96.7122,0.0,2.6,331.0,3.9,'11111222,11111222,11111222' 
TCOON,ioos:station:TCOON:031:1,2015-12-01T05:18:00Z,28.4073,-96.7122,0.0,2.8,337.0,4.1,'11111222,11111222,11111222' 
TCOON,ioos:station:TCOON:031:1,2015-12-01T05:24:00Z,28.4073,-96.7122,0.0,3.0,348.0,4.6,'11111222,11111222,11111222' 
TCOON,ioos:station:TCOON:031:1,2015-12-01T05:30:00Z,28.4073,-96.7122,0.0,3.1,358.0,3.7,'11111222,11111222,11111222' 
TCOON,ioos:station:TCOON:031:1,2015-12-01T05:36:00Z,28.4073,-96.7122,0.0,3.1,358.0,3.7,'1111122,1111122,1111122' 
TCOON,ioos:station:TCOON:031:1,2015-12-01T05:42:00Z,28.4073,-96.7122,0.0,2.7,0.0,3.9,'11111222,11111222,11111222' 
TCOON,ioos:station:TCOON:031:1,2015-12-01T05:48:00Z,28.4073,-96.7122,0.0,2.9,338.0,3.4,'11111222,11111222,11111222' 
TCOON,ioos:station:TCOON:031:1,2015-12-01T05:54:00Z,28.4073,-96.7122,0.0,3.4,330.0,4.9,'11111222,11111222,11111222' 
TCOON,ioos:station:TCOON:031:1,2015-12-01T06:00:00Z,28.4073,-96.7122,0.0,3.1,330.0,3.8,'11111222,11111222,11111222' 
TCOON,ioos:station:TCOON:031:1,2015-12-01T06:06:00Z,28.4073,-96.7122,0.0,2.9,325.0,4.3,'11111222,11111222,11111222' 
TCOON,ioos:station:TCOON:031:1,2015-12-01T06:12:00Z,28.4073,-96.7122,0.0,3.3,338.0,5.1,'11111222,11111222,11111222' 
TCOON,ioos:station:TCOON:031:1,2015-12-01T06:18:00Z,28.4073,-96.7122,0.0,2.9,342.0,4.6,'11111222,11111222,11111222' 
TCOON,ioos:station:TCOON:031:1,2015-12-01T06:24:00Z,28.4073,-96.7122,0.0,2.9,342.0,4.6,'1111122,1111122,1111122' 
TCOON,ioos:station:TCOON:031:1,2015-12-01T06:30:00Z,28.4073,-96.7122,0.0,2.5,350.0,5.1,'11111222,11111222,11111222' 
TCOON,ioos:station:TCOON:031:1,2015-12-01T06:36:00Z,28.4073,-96.7122,0.0,2.8,6.0,4.4,'11111222,11111222,11111222' 
TCOON,ioos:station:TCOON:031:1,2015-12-01T06:42:00Z,28.4073,-96.7122,0.0,2.4,350.0,3.8,'11111222,11111222,11111222' 
TCOON,ioos:station:TCOON:031:1,2015-12-01T06:48:00Z,28.4073,-96.7122,0.0,2.9,334.0,4.1,'11111222,11111222,11111222' 
TCOON,ioos:station:TCOON:031:1,2015-12-01T06:54:00Z,28.4073,-96.7122,0.0,3.3,326.0,4.4,'11111222,11111222,11111222' 
TCOON,ioos:station:TCOON:031:1,2015-12-01T07:00:00Z,28.4073,-96.7122,0.0,3.4,336.0,4.6,'11111222,11111222,11111222' 
TCOON,ioos:station:TCOON:031:1,2015-12-01T07:06:00Z,28.4073,-96.7122,0.0,4.1,330.0,5.5,'11111222,11111222,11111222' 
TCOON,ioos:station:TCOON:031:1,2015-12-01T07:12:00Z,28.4073,-96.7122,0.0,4.2,330.0,5.7,'11111222,11111222,11111222' 
TCOON,ioos:station:TCOON:031:1,2015-12-01T07:18:00Z,28.4073,-96.7122,0.0,3.1,333.0,4.9,'11111222,11111222,11111222' 
TCOON,ioos:station:TCOON:031:1,2015-12-01T07:24:00Z,28.4073,-96.7122,0.0,3.1,333.0,4.9,'1111122,1111122,1111122' 
TCOON,ioos:station:TCOON:031:1,2015-12-01T07:30:00Z,28.4073,-96.7122,0.0,3.1,340.0,4.2,'11111222,11111222,11111222' 
TCOON,ioos:station:TCOON:031:1,2015-12-01T07:36:00Z,28.4073,-96.7122,0.0,2.7,345.0,4.1,'11111222,11111222,11111222' 
TCOON,ioos:station:TCOON:031:1,2015-12-01T07:42:00Z,28.4073,-96.7122,0.0,3.8,337.0,4.9,'11111222,11111222,11111222' 
TCOON,ioos:station:TCOON:031:1,2015-12-01T07:48:00Z,28.4073,-96.7122,0.0,3.1,337.0,4.7,'11111222,11111222,11111222' 
TCOON,ioos:station:TCOON:031:1,2015-12-01T07:54:00Z,28.4073,-96.7122,0.0,2.8,350.0,4.4,'11111222,11111222,11111222' 
TCOON,ioos:station:TCOON:031:1,2015-12-01T08:00:00Z,28.4073,-96.7122,0.0,2.8,0.0,4.4,'11111222,11111222,11111222' 
TCOON,ioos:station:TCOON:031:1,2015-12-01T08:06:00Z,28.4073,-96.7122,0.0,2.4,333.0,4.6,'11111222,11111222,11111222' 
TCOON,ioos:station:TCOON:031:1,2015-12-01T08:12:00Z,28.4073,-96.7122,0.0,4.0,335.0,5.4,'11111222,11111222,11111222' 
TCOON,ioos:station:TCOON:031:1,2015-12-01T08:18:00Z,28.4073,-96.7122,0.0,4.1,332.0,6.0,'11111222,11111222,11111222' 
TCOON,ioos:station:TCOON:031:1,2015-12-01T08:24:00Z,28.4073,-96.7122,0.0,3.8,329.0,5.2,'11111222,11111222,11111222' 
TCOON,ioos:station:TCOON:031:1,2015-12-01T08:30:00Z,28.4073,-96.7122,0.0,3.8,329.0,5.2,'1111122,1111122,1111122' 
TCOON,ioos:station:TCOON:031:1,2015-12-01T08:36:00Z,28.4073,-96.7122,0.0,3.5,354.0,5.7,'11111222,11111222,11111222' 
TCOON,ioos:station:TCOON:031:1,2015-12-01T08:42:00Z,28.4073,-96.7122,0.0,2.9,3.0,5.1,'11111222,11111222,11111222' 
TCOON,ioos:station:TCOON:031:1,2015-12-01T08:48:00Z,28.4073,-96.7122,0.0,3.5,357.0,5.3,'11111222,11111222,11111222' 
TCOON,ioos:station:TCOON:031:1,2015-12-01T08:54:00Z,28.4073,-96.7122,0.0,2.5,4.0,4.6,'11111222,11111222,11111222' 
TCOON,ioos:station:TCOON:031:1,2015-12-01T09:00:00Z,28.4073,-96.7122,0.0,2.8,354.0,4.6,'11111222,11111222,11111222' 
TCOON,ioos:station:TCOON:031:1,2015-12-01T09:06:00Z,28.4073,-96.7122,0.0,3.5,340.0,5.0,'11111222,11111222,11111222' 
TCOON,ioos:station:TCOON:031:1,2015-12-01T09:12:00Z,28.4073,-96.7122,0.0,2.9,347.0,5.5,'11111222,11111222,11111222' 
TCOON,ioos:station:TCOON:031:1,2015-12-01T09:18:00Z,28.4073,-96.7122,0.0,4.4,337.0,5.9,'11111222,11111222,11111222' 
TCOON,ioos:station:TCOON:031:1,2015-12-01T09:24:00Z,28.4073,-96.7122,0.0,3.9,350.0,6.1,'11111222,11111222,11111222' 
TCOON,ioos:station:TCOON:031:1,2015-12-01T09:30:00Z,28.4073,-96.7122,0.0,3.9,350.0,6.1,'1111122,1111122,1111122' 
TCOON,ioos:station:TCOON:031:1,2015-12-01T09:36:00Z,28.4073,-96.7122,0.0,3.9,348.0,5.2,'11111222,11111222,11111222' 
TCOON,ioos:station:TCOON:031:1,2015-12-01T09:42:00Z,28.4073,-96.7122,0.0,3.2,351.0,5.6,'11111222,11111222,11111222' 
TCOON,ioos:station:TCOON:031:1,2015-12-01T09:48:00Z,28.4073,-96.7122,0.0,3.2,345.0,5.3,'11111222,11111222,11111222' 
TCOON,ioos:station:TCOON:031:1,2015-12-01T09:54:00Z,28.4073,-96.7122,0.0,3.5,357.0,5.1,'11111222,11111222,11111222' 
TCOON,ioos:station:TCOON:031:1,2015-12-01T10:00:00Z,28.4073,-96.7122,0.0,3.1,0.0,4.5,'11111222,11111222,11111222' 
TCOON,ioos:station:TCOON:031:1,2015-12-01T10:06:00Z,28.4073,-96.7122,0.0,3.7,4.0,4.9,'11111222,11111222,11111222' 
TCOON,ioos:station:TCOON:031:1,2015-12-01T10:12:00Z,28.4073,-96.7122,0.0,3.5,354.0,5.6,'11111222,11111222,11111222' 
TCOON,ioos:station:TCOON:031:1,2015-12-01T10:18:00Z,28.4073,-96.7122,0.0,4.1,339.0,5.3,'11111222,11111222,11111222' 
TCOON,ioos:station:TCOON:031:1,2015-12-01T10:24:00Z,28.4073,-96.7122,0.0,4.1,351.0,6.2,'11111222,11111222,11111222' 
TCOON,ioos:station:TCOON:031:1,2015-12-01T10:30:00Z,28.4073,-96.7122,0.0,4.1,351.0,6.2,'1111122,1111122,1111122' 
TCOON,ioos:station:TCOON:031:1,2015-12-01T10:36:00Z,28.4073,-96.7122,0.0,4.6,358.0,6.2,'11111222,11111222,11111222' 
TCOON,ioos:station:TCOON:031:1,2015-12-01T10:42:00Z,28.4073,-96.7122,0.0,4.3,351.0,6.2,'11111222,11111222,11111222' 
TCOON,ioos:station:TCOON:031:1,2015-12-01T10:48:00Z,28.4073,-96.7122,0.0,4.3,360.0,6.9,'11111222,11144222,11111222' 
TCOON,ioos:station:TCOON:031:1,2015-12-01T10:54:00Z,28.4073,-96.7122,0.0,3.3,356.0,7.0,'11111222,11111222,11111222' 
TCOON,ioos:station:TCOON:031:1,2015-12-01T11:00:00Z,28.4073,-96.7122,0.0,3.9,354.0,6.0,'11111222,11111222,11111222' 
TCOON,ioos:station:TCOON:031:1,2015-12-01T11:06:00Z,28.4073,-96.7122,0.0,3.1,350.0,6.7,'11111222,11111222,11111222' 
TCOON,ioos:station:TCOON:031:1,2015-12-01T11:12:00Z,28.4073,-96.7122,0.0,3.6,352.0,5.4,'11111222,11111222,11111222' 
TCOON,ioos:station:TCOON:031:1,2015-12-01T11:18:00Z,28.4073,-96.7122,0.0,3.4,352.0,5.9,'11111222,11111222,11111222' 
TCOON,ioos:station:TCOON:031:1,2015-12-01T11:24:00Z,28.4073,-96.7122,0.0,3.4,352.0,5.9,'1111122,1111122,1111122' 
TCOON,ioos:station:TCOON:031:1,2015-12-01T11:30:00Z,28.4073,-96.7122,0.0,3.0,345.0,4.9,'11111222,11111222,11111222' 
TCOON,ioos:station:TCOON:031:1,2015-12-01T11:36:00Z,28.4073,-96.7122,0.0,3.4,356.0,5.5,'11111222,11111222,11111222' 
TCOON,ioos:station:TCOON:031:1,2015-12-01T11:42:00Z,28.4073,-96.7122,0.0,4.3,357.0,5.8,'11111222,11111222,11111222' 
TCOON,ioos:station:TCOON:031:1,2015-12-01T11:48:00Z,28.4073,-96.7122,0.0,3.4,359.0,5.4,'11111222,11111222,11111222' 
TCOON,ioos:station:TCOON:031:1,2015-12-01T11:54:00Z,28.4073,-96.7122,0.0,3.7,2.0,5.4,'11111222,11111222,11111222' 
TCOON,ioos:station:TCOON:031:1,2015-12-01T12:00:00Z,28.4073,-96.7122,0.0,3.2,353.0,4.8,'11111222,11111222,11111222' 
TCOON,ioos:station:TCOON:031:1,2015-12-01T12:06:00Z,28.4073,-96.7122,0.0,3.2,353.0,4.8,'11111222,11111222,11111222' 
TCOON,ioos:station:TCOON:031:1,2015-12-01T12:12:00Z,28.4073,-96.7122,0.0,3.4,355.0,5.3,'11111222,11111222,11111222' 
TCOON,ioos:station:TCOON:031:1,2015-12-01T12:18:00Z,28.4073,-96.7122,0.0,4.5,1.0,5.7,'11111222,11111222,11111222' 
TCOON,ioos:station:TCOON:031:1,2015-12-01T12:24:00Z,28.4073,-96.7122,0.0,3.3,5.0,5.5,'11111222,11111222,11111222' 
TCOON,ioos:station:TCOON:031:1,2015-12-01T12:30:00Z,28.4073,-96.7122,0.0,3.3,5.0,5.5,'1111122,1111122,1111122' 
TCOON,ioos:station:TCOON:031:1,2015-12-01T12:36:00Z,28.4073,-96.7122,0.0,3.0,356.0,5.5,'11111222,11111222,11111222' 
TCOON,ioos:station:TCOON:031:1,2015-12-01T12:42:00Z,28.4073,-96.7122,0.0,3.7,357.0,5.0,'11111222,11111222,11111222' 
TCOON,ioos:station:TCOON:031:1,2015-12-01T12:48:00Z,28.4073,-96.7122,0.0,3.6,345.0,4.7,'11111222,11111222,11111222' 
TCOON,ioos:station:TCOON:031:1,2015-12-01T12:54:00Z,28.4073,-96.7122,0.0,3.6,346.0,5.5,'11111222,11111222,11111222' 
TCOON,ioos:station:TCOON:031:1,2015-12-01T13:00:00Z,28.4073,-96.7122,0.0,3.9,344.0,5.3,'11111222,11111222,11111222' 
TCOON,ioos:station:TCOON:031:1,2015-12-01T13:06:00Z,28.4073,-96.7122,0.0,3.3,343.0,5.2,'11111222,11111222,11111222' 
TCOON,ioos:station:TCOON:031:1,2015-12-01T13:12:00Z,28.4073,-96.7122,0.0,3.9,353.0,5.9,'11111222,11111222,11111222' 
TCOON,ioos:station:TCOON:031:1,2015-12-01T13:18:00Z,28.4073,-96.7122,0.0,3.6,347.0,5.7,'11111222,11111222,11111222' 
TCOON,ioos:station:TCOON:031:1,2015-12-01T13:24:00Z,28.4073,-96.7122,0.0,4.3,352.0,6.0,'11111222,11111222,11111222' 
TCOON,ioos:station:TCOON:031:1,2015-12-01T13:30:00Z,28.4073,-96.7122,0.0,4.3,352.0,6.0,'1111122,1111122,1111122' 
TCOON,ioos:station:TCOON:031:1,2015-12-01T13:36:00Z,28.4073,-96.7122,0.0,3.5,344.0,6.2,'11111222,11111222,11111222' 
TCOON,ioos:station:TCOON:031:1,2015-12-01T13:42:00Z,28.4073,-96.7122,0.0,4.1,348.0,5.7,'11111222,11111222,11111222' 
TCOON,ioos:station:TCOON:031:1,2015-12-01T13:48:00Z,28.4073,-96.7122,0.0,4.8,354.0,7.1,'11111222,11111222,11111222' 
TCOON,ioos:station:TCOON:031:1,2015-12-01T13:54:00Z,28.4073,-96.7122,0.0,3.9,358.0,6.3,'11111222,11111222,11111222' 
TCOON,ioos:station:TCOON:031:1,2015-12-01T14:00:00Z,28.4073,-96.7122,0.0,3.8,355.0,5.5,'11111222,11111222,11111222' 
TCOON,ioos:station:TCOON:031:1,2015-12-01T14:06:00Z,28.4073,-96.7122,0.0,3.9,8.0,6.0,'11111222,11111222,11111222' 
TCOON,ioos:station:TCOON:031:1,2015-12-01T14:12:00Z,28.4073,-96.7122,0.0,4.6,4.0,6.9,'11111222,11111222,11111222' 
TCOON,ioos:station:TCOON:031:1,2015-12-01T14:18:00Z,28.4073,-96.7122,0.0,3.8,4.0,5.9,'11111222,11111222,11111222' 
TCOON,ioos:station:TCOON:031:1,2015-12-01T14:24:00Z,28.4073,-96.7122,0.0,3.8,4.0,5.9,'1111122,1111122,1111122' 
TCOON,ioos:station:TCOON:031:1,2015-12-01T14:30:00Z,28.4073,-96.7122,0.0,4.5,350.0,6.4,'11111222,11111222,11111222' 
TCOON,ioos:station:TCOON:031:1,2015-12-01T14:36:00Z,28.4073,-96.7122,0.0,3.0,349.0,5.5,'11111222,11111222,11111222' 
TCOON,ioos:station:TCOON:031:1,2015-12-01T14:42:00Z,28.4073,-96.7122,0.0,4.6,348.0,6.6,'11111222,11111222,11111222' 
TCOON,ioos:station:TCOON:031:1,2015-12-01T14:48:00Z,28.4073,-96.7122,0.0,3.6,359.0,6.8,'11111222,11111222,11111222' 
TCOON,ioos:station:TCOON:031:1,2015-12-01T14:54:00Z,28.4073,-96.7122,0.0,3.2,352.0,5.4,'11111222,11111222,11111222' 
TCOON,ioos:station:TCOON:031:1,2015-12-01T15:00:00Z,28.4073,-96.7122,0.0,3.6,359.0,5.0,'11111222,11111222,11111222' 
TCOON,ioos:station:TCOON:031:1,2015-12-01T15:06:00Z,28.4073,-96.7122,0.0,3.5,351.0,5.3,'11111222,11111222,11111222' 
TCOON,ioos:station:TCOON:031:1,2015-12-01T15:12:00Z,28.4073,-96.7122,0.0,3.9,352.0,5.7,'11111222,11111222,11111222' 
TCOON,ioos:station:TCOON:031:1,2015-12-01T15:18:00Z,28.4073,-96.7122,0.0,3.9,357.0,5.5,'11111222,11111222,11111222' 
TCOON,ioos:station:TCOON:031:1,2015-12-01T15:24:00Z,28.4073,-96.7122,0.0,2.6,352.0,6.3,'11111222,11111222,11111222' 
TCOON,ioos:station:TCOON:031:1,2015-12-01T15:30:00Z,28.4073,-96.7122,0.0,2.6,352.0,6.3,'1111122,1111122,1111122' 
TCOON,ioos:station:TCOON:031:1,2015-12-01T15:36:00Z,28.4073,-96.7122,0.0,2.6,352.0,4.4,'11111222,11111222,11111222' 
TCOON,ioos:station:TCOON:031:1,2015-12-01T15:42:00Z,28.4073,-96.7122,0.0,3.2,335.0,5.0,'11111222,11111222,11111222' 
TCOON,ioos:station:TCOON:031:1,2015-12-01T15:48:00Z,28.4073,-96.7122,0.0,3.9,359.0,5.2,'11111222,11111222,11111222' 
TCOON,ioos:station:TCOON:031:1,2015-12-01T15:54:00Z,28.4073,-96.7122,0.0,4.0,2.0,6.7,'11111222,11111222,11111222' 
TCOON,ioos:station:TCOON:031:1,2015-12-01T16:00:00Z,28.4073,-96.7122,0.0,5.2,5.0,6.6,'11111222,11111222,11111222' 
TCOON,ioos:station:TCOON:031:1,2015-12-01T16:06:00Z,28.4073,-96.7122,0.0,3.5,352.0,6.3,'11111222,11111222,11111222' 
TCOON,ioos:station:TCOON:031:1,2015-12-01T16:12:00Z,28.4073,-96.7122,0.0,4.7,4.0,6.1,'11111222,11111222,11111222' 
TCOON,ioos:station:TCOON:031:1,2015-12-01T16:18:00Z,28.4073,-96.7122,0.0,4.2,357.0,6.0,'11111222,11111222,11111222' 
TCOON,ioos:station:TCOON:031:1,2015-12-01T16:24:00Z,28.4073,-96.7122,0.0,4.2,13.0,6.2,'11111222,11111222,11111222' 
TCOON,ioos:station:TCOON:031:1,2015-12-01T16:30:00Z,28.4073,-96.7122,0.0,4.0,2.0,5.5,'11111222,11111222,11111222' 
TCOON,ioos:station:TCOON:031:1,2015-12-01T16:36:00Z,28.4073,-96.7122,0.0,4.0,2.0,5.5,'1111122,1111122,1111122' 
TCOON,ioos:station:TCOON:031:1,2015-12-01T16:42:00Z,28.4073,-96.7122,0.0,4.3,359.0,6.4,'11111222,11111222,11111222' 
TCOON,ioos:station:TCOON:031:1,2015-12-01T16:48:00Z,28.4073,-96.7122,0.0,5.1,343.0,6.6,'11111222,11111222,11111222' 
TCOON,ioos:station:TCOON:031:1,2015-12-01T16:54:00Z,28.4073,-96.7122,0.0,4.4,338.0,6.3,'11111222,11111222,11111222' 
TCOON,ioos:station:TCOON:031:1,2015-12-01T17:00:00Z,28.4073,-96.7122,0.0,3.9,337.0,6.2,'11111222,11111222,11111222' 
TCOON,ioos:station:TCOON:031:1,2015-12-01T17:06:00Z,28.4073,-96.7122,0.0,4.5,350.0,6.0,'11111222,11111222,11111222' 
TCOON,ioos:station:TCOON:031:1,2015-12-01T17:12:00Z,28.4073,-96.7122,0.0,4.0,331.0,5.3,'11111222,11111222,11111222' 
TCOON,ioos:station:TCOON:031:1,2015-12-01T17:18:00Z,28.4073,-96.7122,0.0,3.9,347.0,5.4,'11111222,11111222,11111222' 
TCOON,ioos:station:TCOON:031:1,2015-12-01T17:24:00Z,28.4073,-96.7122,0.0,3.9,347.0,5.4,'1111122,1111122,1111122' 
TCOON,ioos:station:TCOON:031:1,2015-12-01T17:30:00Z,28.4073,-96.7122,0.0,4.8,335.0,6.4,'11111222,11111222,11111222' 
TCOON,ioos:station:TCOON:031:1,2015-12-01T17:36:00Z,28.4073,-96.7122,0.0,3.1,353.0,5.4,'11111222,11111222,11111222' 
TCOON,ioos:station:TCOON:031:1,2015-12-01T17:42:00Z,28.4073,-96.7122,0.0,3.2,358.0,6.3,'11111222,11111222,11111222' 
TCOON,ioos:station:TCOON:031:1,2015-12-01T17:48:00Z,28.4073,-96.7122,0.0,3.7,349.0,5.3,'11111222,11111222,11111222' 
TCOON,ioos:station:TCOON:031:1,2015-12-01T17:54:00Z,28.4073,-96.7122,0.0,2.9,360.0,5.6,'11111222,11144222,11111222' 
TCOON,ioos:station:TCOON:031:1,2015-12-01T18:00:00Z,28.4073,-96.7122,0.0,3.7,341.0,5.6,'11111222,11111222,11111222' 
TCOON,ioos:station:TCOON:031:1,2015-12-01T18:06:00Z,28.4073,-96.7122,0.0,3.8,346.0,5.2,'11111222,11111222,11111222' 
TCOON,ioos:station:TCOON:031:1,2015-12-01T18:12:00Z,28.4073,-96.7122,0.0,4.1,338.0,6.2,'11111222,11111222,11111222' 
TCOON,ioos:station:TCOON:031:1,2015-12-01T18:18:00Z,28.4073,-96.7122,0.0,3.7,345.0,5.8,'11111222,11111222,11111222' 
TCOON,ioos:station:TCOON:031:1,2015-12-01T18:24:00Z,28.4073,-96.7122,0.0,4.5,353.0,6.5,'11111222,11111222,11111222' 
TCOON,ioos:station:TCOON:031:1,2015-12-01T18:30:00Z,28.4073,-96.7122,0.0,4.2,4.0,5.7,'11111222,11111222,11111222' 
TCOON,ioos:station:TCOON:031:1,2015-12-01T18:36:00Z,28.4073,-96.7122,0.0,4.2,4.0,5.7,'1111122,1111122,1111122' 
TCOON,ioos:station:TCOON:031:1,2015-12-01T18:42:00Z,28.4073,-96.7122,0.0,2.6,10.0,5.0,'11111222,11111222,11111222' 
TCOON,ioos:station:TCOON:031:1,2015-12-01T18:48:00Z,28.4073,-96.7122,0.0,3.1,355.0,4.1,'11111222,11111222,11111222' 
TCOON,ioos:station:TCOON:031:1,2015-12-01T18:54:00Z,28.4073,-96.7122,0.0,2.1,344.0,3.2,'11111222,11111222,11111222' 
TCOON,ioos:station:TCOON:031:1,2015-12-01T19:00:00Z,28.4073,-96.7122,0.0,2.9,5.0,4.0,'11111222,11111222,11111222' 
TCOON,ioos:station:TCOON:031:1,2015-12-01T19:06:00Z,28.4073,-96.7122,0.0,2.4,356.0,4.6,'11111222,11111222,11111222' 
TCOON,ioos:station:TCOON:031:1,2015-12-01T19:12:00Z,28.4073,-96.7122,0.0,2.7,343.0,4.1,'11111222,11111222,11111222' 
TCOON,ioos:station:TCOON:031:1,2015-12-01T19:18:00Z,28.4073,-96.7122,0.0,3.9,357.0,4.9,'11111222,11111222,11111222' 
TCOON,ioos:station:TCOON:031:1,2015-12-01T19:24:00Z,28.4073,-96.7122,0.0,2.7,346.0,4.7,'11111222,11111222,11111222' 
TCOON,ioos:station:TCOON:031:1,2015-12-01T19:30:00Z,28.4073,-96.7122,0.0,2.7,346.0,4.7,'1111122,1111122,1111122' 
TCOON,ioos:station:TCOON:031:1,2015-12-01T19:36:00Z,28.4073,-96.7122,0.0,2.8,333.0,4.4,'11111222,11111222,11111222' 
TCOON,ioos:station:TCOON:031:1,2015-12-01T19:42:00Z,28.4073,-96.7122,0.0,2.7,12.0,3.8,'11111222,11111222,11111222' 
TCOON,ioos:station:TCOON:031:1,2015-12-01T19:48:00Z,28.4073,-96.7122,0.0,2.4,348.0,3.5,'11111222,11111222,11111222' 
TCOON,ioos:station:TCOON:031:1,2015-12-01T19:54:00Z,28.4073,-96.7122,0.0,3.4,344.0,4.4,'11111222,11111222,11111222' 
TCOON,ioos:station:TCOON:031:1,2015-12-01T20:00:00Z,28.4073,-96.7122,0.0,2.8,314.0,4.2,'11111222,11111222,11111222' 
TCOON,ioos:station:TCOON:031:1,2015-12-01T20:06:00Z,28.4073,-96.7122,0.0,2.0,9.0,3.4,'11111222,11111222,11111222' 
TCOON,ioos:station:TCOON:031:1,2015-12-01T20:12:00Z,28.4073,-96.7122,0.0,2.2,353.0,3.4,'11111222,11111222,11111222' 
TCOON,ioos:station:TCOON:031:1,2015-12-01T20:18:00Z,28.4073,-96.7122,0.0,2.7,353.0,3.5,'11111222,11111222,11111222' 
TCOON,ioos:station:TCOON:031:1,2015-12-01T20:24:00Z,28.4073,-96.7122,0.0,2.2,22.0,3.9,'11111222,11111222,11111222' 